Regional Weather Roundup
Issued by NWS

Home | Current Version | Previous Version | Graphics & Text | Print | Product List | Glossary On
Versions: 1 2 3 4 5 6 7 8 9 10 11 12 13 14 15 16 17 18 19 20 21 22 23 24 25 26 27 28 29 30 31 32 33 34 35 36 37 38 39 40 41 42 43 44 45 46 47 48 49 50
000
ASUS44 KMEG 060400
RWRTN
TENNESSEE HOURLY STATE WEATHER ROUNDUP
NATIONAL WEATHER SERVICE MEMPHIS TN
1100 PM CDT TUE MAY 05 2015

TNZ002-004-019-021-049-052-054-088>092-060500-
WEST TENNESSEE

CITY           SKY/WX    TMP DP  RH WIND       PRES   REMARKS
MEMPHIS INTL   CLEAR     70  54  56 SE3       30.16R
NWS MEMPHIS      N/A     65 N/A N/A MISG        N/A
JACKSON        CLEAR     59  55  87 S5        30.18R
DYERSBURG      CLEAR     64  45  48 CALM      30.17S
PARIS          CLEAR     63  52  67 SE6       30.19S
LEXINGTON      CLEAR     59  57  94 CALM      30.18S
$$

TNZ008-025-027-028-033-062-065-066-060500-
NORTH MIDDLE TENNESSEE

CITY           SKY/WX    TMP DP  RH WIND       PRES   REMARKS
NASHVILLE      PTCLDY    67  57  70 S5        30.21S
CLARKSVILLE    CLEAR     63  55  75 CALM      30.19S
COOKEVILLE     MOCLDY    64  61  88 CALM      30.23S
CROSSVILLE     MOCLDY    65  53  65 CALM      30.28S
$$

TNZ061-075-076-078-094-096-097-060500-
SOUTH MIDDLE TENNESSEE

CITY           SKY/WX    TMP DP  RH WIND       PRES   REMARKS
FAYETTEVILLE     N/A     66  54  63 CALM      30.23S
TULLAHOMA      MOCLDY    64  55  72 CALM      30.25S
WINCHESTER     CLOUDY    66  61  82 CALM      30.24S
MCMINNVILLE    CLOUDY    66  63  88 CALM      30.24S
COLUMBIA       CLEAR     61  55  82 CALM      30.20S
SHELBYVILLE    CLOUDY    66  61  82 E3        30.23S
$$

TNZ017-018-042-046-047-060500-
NORTHEAST TENNESSEE

CITY           SKY/WX    TMP DP  RH WIND       PRES   REMARKS
TRI CITIES     MOCLDY    69  54  58 CALM      30.26S
ELIZABETHTON   CLEAR     63  54  72 CALM      30.28S
$$

TNZ012-013-036-069-073-074-060500-
CENTRAL EAST TENNESSEE

CITY           SKY/WX    TMP DP  RH WIND       PRES   REMARKS
KNOXVILLE      CLOUDY    69  57  65 SW5       30.23S
OAK RIDGE      CLOUDY    72  58  61 CALM      30.25S
$$

TNZ083-085-099-060500-
SOUTHEAST TENNESSEE

CITY           SKY/WX    TMP DP  RH WIND       PRES   REMARKS
CHATTANOOGA    CLOUDY    73  55  53 S5        30.24R
$$

SKY/WX REPORTED AS FAIR MEANS FEW OR NO CLOUDS BELOW
12 THOUSAND FEET.




USA.gov is the U.S. government's official web portal to all federal, state and local government web resources and services.